| time (UTC) | temp F | wind direction | speed MPH | gust MPH | rain 1hr in | rain 24hr in | rain mn in | humidity % | barometer mb |
| 20260906171016 | 90 | 225 | 1.0 | 3.0 | 0.00 | 0.00 | 0.00 | 38 | 1014.8 |
| 20260906170016 | 87 | 180 | 1.0 | 4.0 | 0.00 | 0.00 | 0.00 | 41 | 1014.9 |
| 20260906165016 | 87 | 225 | 2.0 | 6.0 | 0.00 | 0.00 | 0.00 | 42 | 1014.9 |
| 20260906164016 | 86 | 0.0 | 2.0 | 0.00 | 0.00 | 0.00 | 41 | 1015.0 | |
| 20260906163016 | 87 | 225 | 1.0 | 5.0 | 0.00 | 0.00 | 0.00 | 41 | 1015.0 |
| 20260906162016 | 84 | 203 | 2.0 | 5.0 | 0.00 | 0.00 | 0.00 | 44 | 1015.1 |
| 20260906161016 | 84 | 180 | 3.0 | 7.0 | 0.00 | 0.00 | 0.00 | 45 | 1015.1 |
| 20260906160016 | 83 | 158 | 2.0 | 5.0 | 0.00 | 0.00 | 0.00 | 47 | 1015.0 |
| 20260906155016 | 82 | 90 | 1.0 | 3.0 | 0.00 | 0.00 | 0.00 | 47 | 1014.9 |
| 20260906154016 | 82 | 0.0 | 2.0 | 0.00 | 0.00 | 0.00 | 48 | 1015.1 | |
| 20260906153016 | 81 | 113 | 1.0 | 3.0 | 0.00 | 0.00 | 0.00 | 49 | 1015.2 |
| 20260906152016 | 81 | 90 | 2.0 | 4.0 | 0.00 | 0.00 | 0.00 | 49 | 1015.3 |
| 20260906151016 | 80 | 90 | 3.0 | 7.0 | 0.00 | 0.00 | 0.00 | 51 | 1015.3 |
| 20260906150016 | 80 | 68 | 3.0 | 6.0 | 0.00 | 0.00 | 0.00 | 51 | 1015.4 |
| 20260906145016 | 80 | 113 | 1.0 | 4.0 | 0.00 | 0.00 | 0.00 | 53 | 1015.3 |
| 20260906144016 | 79 | 0.0 | 2.0 | 0.00 | 0.00 | 0.00 | 53 | 1015.3 | |
| 20260906143016 | 79 | 0.0 | 3.0 | 0.00 | 0.00 | 0.00 | 54 | 1015.2 | |
| 20260906142016 | 79 | 0.0 | 4.0 | 0.00 | 0.00 | 0.00 | 56 | 1015.0 | |
| 20260906141016 | 79 | 0.0 | 0.0 | 0.00 | 0.00 | 0.00 | 55 | 1014.9 | |
| 20260906140016 | 79 | 0.0 | 0.0 | 0.00 | 0.00 | 0.00 | 53 | 1014.8 | |
| 20260906135016 | 79 | 0 | 1.0 | 2.0 | 0.00 | 0.00 | 0.00 | 54 | 1014.6 |
| 20260906134016 | 79 | 0.0 | 1.0 | 0.00 | 0.00 | 0.00 | 54 | 1014.5 | |
| 20260906133016 | 79 | 0.0 | 2.0 | 0.00 | 0.00 | 0.00 | 52 | 1014.5 | |
| 20260906132016 | 79 | 0.0 | 0.0 | 0.00 | 0.00 | 0.00 | 52 | 1014.4 | |
| 20260906131016 | 80 | 45 | 1.0 | 2.0 | 0.00 | 0.00 | 0.00 | 50 | 1014.4 |
| 20260906130016 | 80 | 68 | 1.0 | 3.0 | 0.00 | 0.00 | 0.00 | 49 | 1014.5 |
| 20260906125016 | 80 | 68 | 3.0 | 7.0 | 0.00 | 0.00 | 0.00 | 49 | 1014.5 |
| 20260906124016 | 80 | 45 | 2.0 | 6.0 | 0.00 | 0.00 | 0.00 | 50 | 1014.4 |
| 20260906123016 | 79 | 68 | 3.0 | 8.0 | 0.00 | 0.00 | 0.00 | 51 | 1014.4 |
| 20260906122016 | 79 | 68 | 4.0 | 9.0 | 0.00 | 0.00 | 0.00 | 52 | 1014.2 |
| 20260906121016 | 78 | 68 | 4.0 | 8.0 | 0.00 | 0.00 | 0.00 | 54 | 1014.1 |
| 20260906120016 | 78 | 68 | 3.0 | 7.0 | 0.00 | 0.00 | 0.00 | 54 | 1014.0 |
| 20260906115016 | 78 | 90 | 2.0 | 7.0 | 0.00 | 0.00 | 0.00 | 54 | 1014.0 |
| 20260906114016 | 78 | 0.0 | 0.0 | 0.00 | 0.00 | 0.00 | 55 | 1013.9 | |
| 20260906113016 | 79 | 0.0 | 0.0 | 0.00 | 0.00 | 0.00 | 54 | 1013.8 | |
| 20260906112016 | 79 | 0.0 | 0.0 | 0.00 | 0.00 | 0.00 | 54 | 1013.7 | |
| 20260906111016 | 79 | 0.0 | 2.0 | 0.00 | 0.00 | 0.00 | 55 | 1013.6 | |
| 20260906110016 | 79 | 0.0 | 0.0 | 0.00 | 0.00 | 0.00 | 54 | 1013.7 | |
| 20260906105016 | 79 | 0.0 | 2.0 | 0.00 | 0.00 | 0.00 | 54 | 1013.6 | |
| 20260906104016 | 79 | 0.0 | 1.0 | 0.00 | 0.00 | 0.00 | 53 | 1013.5 | |
| 20260906103016 | 80 | 0.0 | 0.0 | 0.00 | 0.00 | 0.00 | 53 | 1013.5 | |
| 20260906102016 | 80 | 0.0 | 0.0 | 0.00 | 0.00 | 0.00 | 52 | 1013.5 | |
| 20260906101016 | 80 | 0.0 | 1.0 | 0.00 | 0.00 | 0.00 | 51 | 1013.5 | |
| 20260906100016 | 80 | 0.0 | 2.0 | 0.00 | 0.00 | 0.00 | 50 | 1013.6 | |
| 20260906095016 | 80 | 0.0 | 1.0 | 0.00 | 0.00 | 0.00 | 51 | 1013.4 | |
| 20260906094016 | 80 | 338 | 1.0 | 2.0 | 0.00 | 0.00 | 0.00 | 51 | 1013.3 |
| 20260906093016 | 80 | 338 | 2.0 | 4.0 | 0.00 | 0.00 | 0.00 | 51 | 1013.4 |
| 20260906092016 | 80 | 0 | 1.0 | 2.0 | 0.00 | 0.00 | 0.00 | 51 | 1013.6 |
| 20260906091016 | 80 | 0 | 1.0 | 3.0 | 0.00 | 0.00 | 0.00 | 51 | 1013.5 |
| 20260906090016 | 80 | 0 | 2.0 | 4.0 | 0.00 | 0.00 | 0.00 | 51 | 1013.5 |
| 20260906085016 | 80 | 0 | 1.0 | 2.0 | 0.00 | 0.00 | 0.00 | 51 | 1013.6 |
| 20260906084016 | 81 | 0.0 | 1.0 | 0.00 | 0.00 | 0.00 | 50 | 1013.5 | |
| 20260906083016 | 81 | 0.0 | 1.0 | 0.00 | 0.00 | 0.00 | 49 | 1013.6 | |
| 20260906082016 | 81 | 0 | 1.0 | 2.0 | 0.00 | 0.00 | 0.00 | 49 | 1013.7 |
| 20260906081016 | 81 | 0 | 2.0 | 4.0 | 0.00 | 0.00 | 0.00 | 49 | 1013.8 |
| 20260906080016 | 82 | 0 | 1.0 | 2.0 | 0.00 | 0.00 | 0.00 | 48 | 1013.7 |
| 20260906075016 | 82 | 23 | 1.0 | 3.0 | 0.00 | 0.00 | 0.00 | 47 | 1013.9 |
| 20260906074016 | 83 | 0 | 1.0 | 3.0 | 0.00 | 0.00 | 0.00 | 46 | 1014.0 |
| 20260906073016 | 83 | 0.0 | 1.0 | 0.00 | 0.00 | 0.00 | 45 | 1014.0 | |
| 20260906072016 | 83 | 0.0 | 1.0 | 0.00 | 0.00 | 0.00 | 45 | 1014.0 | |
| 20260906071016 | 84 | 338 | 1.0 | 3.0 | 0.00 | 0.00 | 0.00 | 45 | 1014.0 |
| 20260906070016 | 84 | 338 | 1.0 | 2.0 | 0.00 | 0.00 | 0.00 | 45 | 1013.9 |
| 20260906065016 | 84 | 338 | 1.0 | 3.0 | 0.00 | 0.00 | 0.00 | 44 | 1014.0 |
| 20260906064016 | 85 | 0.0 | 2.0 | 0.00 | 0.00 | 0.00 | 43 | 1014.1 | |
| 20260906063016 | 85 | 0.0 | 0.0 | 0.00 | 0.00 | 0.00 | 43 | 1014.1 | |
| 20260906062016 | 86 | 23 | 1.0 | 3.0 | 0.00 | 0.00 | 0.00 | 42 | 1014.1 |
| 20260906061016 | 87 | 23 | 1.0 | 2.0 | 0.00 | 0.00 | 0.00 | 40 | 1014.1 |
| 20260906060016 | 87 | 45 | 2.0 | 5.0 | 0.00 | 0.00 | 0.00 | 39 | 1014.1 |
| 20260906055016 | 87 | 0 | 1.0 | 5.0 | 0.00 | 0.00 | 0.00 | 39 | 1014.1 |
| 20260906054016 | 87 | 338 | 4.0 | 10.0 | 0.00 | 0.00 | 0.00 | 39 | 1014.2 |
| 20260906053016 | 88 | 0 | 2.0 | 9.0 | 0.00 | 0.00 | 0.00 | 39 | 1014.1 |
| 20260906052016 | 88 | 0 | 3.0 | 9.0 | 0.00 | 0.00 | 0.00 | 39 | 1014.2 |
| 20260906051016 | 88 | 0 | 4.0 | 8.0 | 0.00 | 0.00 | 0.00 | 39 | 1014.2 |
| 20260906050016 | 88 | 0 | 3.0 | 7.0 | 0.00 | 0.00 | 0.00 | 39 | 1014.3 |
| 20260906045016 | 88 | 0 | 3.0 | 8.0 | 0.00 | 0.00 | 0.00 | 39 | 1014.3 |
| 20260906044016 | 88 | 0 | 3.0 | 5.0 | 0.00 | 0.00 | 0.00 | 39 | 1014.3 |
| 20260906043016 | 88 | 113 | 4.0 | 8.0 | 0.00 | 0.00 | 0.00 | 38 | 1014.2 |
| 20260906042016 | 88 | 0 | 4.0 | 8.0 | 0.00 | 0.00 | 0.00 | 38 | 1014.3 |
| 20260906041016 | 88 | 0 | 4.0 | 9.0 | 0.00 | 0.00 | 0.00 | 38 | 1014.3 |
| 20260906040016 | 89 | 0 | 4.0 | 10.0 | 0.00 | 0.00 | 0.00 | 38 | 1014.3 |
| 20260906035016 | 89 | 338 | 5.0 | 12.0 | 0.00 | 0.00 | 0.00 | 38 | 1014.2 |
| 20260906034016 | 89 | 315 | 6.0 | 14.0 | 0.00 | 0.00 | 0.00 | 38 | 1014.1 |
| 20260906033016 | 89 | 315 | 7.0 | 13.0 | 0.00 | 0.00 | 0.00 | 38 | 1013.9 |
| 20260906032016 | 89 | 315 | 6.0 | 15.0 | 0.00 | 0.00 | 0.00 | 38 | 1013.8 |
| 20260906031016 | 89 | 293 | 6.0 | 12.0 | 0.00 | 0.00 | 0.00 | 38 | 1013.7 |
| 20260906030016 | 89 | 315 | 5.0 | 12.0 | 0.00 | 0.00 | 0.00 | 38 | 1013.6 |
| 20260906025016 | 89 | 293 | 6.0 | 14.0 | 0.00 | 0.00 | 0.00 | 38 | 1013.5 |
| 20260906024016 | 90 | 293 | 7.0 | 13.0 | 0.00 | 0.00 | 0.00 | 37 | 1013.4 |
| 20260906023016 | 90 | 293 | 4.0 | 11.0 | 0.00 | 0.00 | 0.00 | 37 | 1013.3 |
| 20260906022016 | 90 | 270 | 6.0 | 12.0 | 0.00 | 0.00 | 0.00 | 37 | 1013.2 |
| 20260906021016 | 90 | 270 | 5.0 | 12.0 | 0.00 | 0.00 | 0.00 | 37 | 1013.2 |
| 20260906020016 | 90 | 293 | 5.0 | 10.0 | 0.00 | 0.00 | 0.00 | 36 | 1013.2 |
| 20260906015016 | 90 | 270 | 9.0 | 16.0 | 0.00 | 0.00 | 0.00 | 36 | 1013.2 |
| 20260906014016 | 90 | 270 | 9.0 | 13.0 | 0.00 | 0.00 | 0.00 | 36 | 1013.2 |
| 20260906013016 | 91 | 270 | 8.0 | 16.0 | 0.00 | 0.00 | 0.00 | 36 | 1013.1 |
| 20260906012016 | 91 | 270 | 8.0 | 14.0 | 0.00 | 0.00 | 0.00 | 36 | 1013.2 |
| 20260906011016 | 92 | 270 | 9.0 | 16.0 | 0.00 | 0.00 | 0.00 | 36 | 1013.2 |
| 20260906010016 | 92 | 270 | 9.0 | 17.0 | 0.00 | 0.00 | 0.00 | 35 | 1013.2 |
| 20260906005016 | 92 | 270 | 10.0 | 16.0 | 0.00 | 0.00 | 0.00 | 35 | 1013.2 |
| 20260906004016 | 92 | 270 | 9.0 | 17.0 | 0.00 | 0.00 | 0.00 | 35 | 1013.1 |
| 20260906003016 | 93 | 270 | 9.0 | 17.0 | 0.00 | 0.00 | 0.00 | 35 | 1013.1 |
| 20260906002016 | 93 | 270 | 11.0 | 19.0 | 0.00 | 0.00 | 0.00 | 35 | 1013.0 |
| 20260906001016 | 93 | 270 | 9.0 | 17.0 | 0.00 | 0.00 | 0.00 | 34 | 1013.0 |
| 20260906000016 | 93 | 293 | 9.0 | 19.0 | 0.00 | 0.00 | 0.00 | 34 | 1013.0 |
| 20260905235016 | 94 | 270 | 10.0 | 18.0 | 0.00 | 0.00 | 0.00 | 34 | 1013.1 |
| 20260905234016 | 94 | 293 | 8.0 | 15.0 | 0.00 | 0.00 | 0.00 | 33 | 1013.0 |
| 20260905233016 | 94 | 293 | 9.0 | 15.0 | 0.00 | 0.00 | 0.00 | 33 | 1013.1 |
| 20260905232016 | 94 | 270 | 10.0 | 16.0 | 0.00 | 0.00 | 0.00 | 33 | 1013.2 |
| 20260905231016 | 94 | 270 | 7.0 | 13.0 | 0.00 | 0.00 | 0.00 | 33 | 1013.2 |
| 20260905230016 | 94 | 270 | 8.0 | 17.0 | 0.00 | 0.00 | 0.00 | 33 | 1013.4 |
| 20260905225016 | 95 | 270 | 8.0 | 14.0 | 0.00 | 0.00 | 0.00 | 33 | 1013.3 |
| 20260905224016 | 94 | 270 | 8.0 | 15.0 | 0.00 | 0.00 | 0.00 | 32 | 1013.5 |
| 20260905223016 | 95 | 270 | 8.0 | 14.0 | 0.00 | 0.00 | 0.00 | 32 | 1013.4 |
| 20260905222016 | 95 | 270 | 7.0 | 17.0 | 0.00 | 0.00 | 0.00 | 32 | 1013.5 |
| 20260905221016 | 95 | 248 | 8.0 | 14.0 | 0.00 | 0.00 | 0.00 | 32 | 1013.6 |
| 20260905220016 | 95 | 270 | 8.0 | 16.0 | 0.00 | 0.00 | 0.00 | 33 | 1013.6 |
| 20260905215016 | 95 | 270 | 6.0 | 10.0 | 0.00 | 0.00 | 0.00 | 33 | 1013.9 |
| 20260905214016 | 95 | 270 | 5.0 | 14.0 | 0.00 | 0.00 | 0.00 | 33 | 1014.0 |
| 20260905213016 | 94 | 270 | 8.0 | 16.0 | 0.00 | 0.00 | 0.00 | 34 | 1014.1 |
| 20260905212017 | 95 | 248 | 7.0 | 15.0 | 0.00 | 0.00 | 0.00 | 34 | 1014.1 |
| 20260905211016 | 95 | 248 | 7.0 | 14.0 | 0.00 | 0.00 | 0.00 | 34 | 1014.3 |
| 20260905210016 | 95 | 270 | 7.0 | 14.0 | 0.00 | 0.00 | 0.00 | 35 | 1014.6 |
| 20260905205016 | 95 | 270 | 7.0 | 15.0 | 0.00 | 0.00 | 0.00 | 34 | 1014.6 |
| 20260905204016 | 96 | 248 | 5.0 | 12.0 | 0.00 | 0.00 | 0.00 | 34 | 1014.8 |
| 20260905203016 | 94 | 270 | 7.0 | 12.0 | 0.00 | 0.00 | 0.00 | 35 | 1015.1 |
| 20260905202016 | 94 | 248 | 6.0 | 12.0 | 0.00 | 0.00 | 0.00 | 35 | 1015.2 |
| 20260905201016 | 94 | 270 | 6.0 | 12.0 | 0.00 | 0.00 | 0.00 | 36 | 1015.4 |
| 20260905200016 | 94 | 248 | 6.0 | 11.0 | 0.00 | 0.00 | 0.00 | 36 | 1015.4 |
| 20260905195016 | 95 | 248 | 6.0 | 11.0 | 0.00 | 0.00 | 0.00 | 36 | 1015.5 |
| 20260905194016 | 94 | 270 | 7.0 | 14.0 | 0.00 | 0.00 | 0.00 | 37 | 1015.6 |
| 20260905193016 | 94 | 225 | 5.0 | 10.0 | 0.00 | 0.00 | 0.00 | 37 | 1015.7 |
| 20260905192016 | 93 | 248 | 6.0 | 12.0 | 0.00 | 0.00 | 0.00 | 38 | 1015.9 |
| 20260905191016 | 94 | 248 | 5.0 | 11.0 | 0.00 | 0.00 | 0.00 | 37 | 1016.0 |
| 20260905190016 | 93 | 270 | 5.0 | 11.0 | 0.00 | 0.00 | 0.00 | 38 | 1016.1 |
| 20260905185016 | 92 | 293 | 5.0 | 12.0 | 0.00 | 0.00 | 0.00 | 39 | 1016.3 |
| 20260905184016 | 93 | 248 | 4.0 | 10.0 | 0.00 | 0.00 | 0.00 | 39 | 1016.4 |
| 20260905183016 | 92 | 248 | 4.0 | 8.0 | 0.00 | 0.00 | 0.00 | 39 | 1016.5 |
| 20260905182016 | 92 | 225 | 4.0 | 10.0 | 0.00 | 0.00 | 0.00 | 39 | 1016.6 |
| 20260905181016 | 92 | 248 | 4.0 | 10.0 | 0.00 | 0.00 | 0.00 | 40 | 1016.6 |
| 20260905180016 | 89 | 203 | 3.0 | 7.0 | 0.00 | 0.00 | 0.00 | 44 | 1016.7 |
| 20260905175016 | 90 | 248 | 5.0 | 11.0 | 0.00 | 0.00 | 0.00 | 43 | 1016.7 |
| 20260905174016 | 89 | 293 | 4.0 | 9.0 | 0.00 | 0.00 | 0.00 | 44 | 1017.0 |
| 20260905173016 | 88 | 248 | 1.0 | 4.0 | 0.00 | 0.00 | 0.00 | 46 | 1017.0 |
| 20260905172016 | 87 | 135 | 1.0 | 4.0 | 0.00 | 0.00 | 0.00 | 47 | 1017.0 |